Tiempo cada hora Musatovo

Hoy, 22 Octubre, Jueves

Tiempo Temperatura Precipitaciones Viento Presión Humedad
00:00 -5°C° 0.1 mm 5 mps 729 mmHg 84%
01:00 -5°C° 0.1 mm 5 mps 729 mmHg 83%
02:00 -5°C° 0.1 mm 5 mps 729 mmHg 83%
03:00 -5°C° 0.1 mm 5 mps 730 mmHg 83%
04:00 -5°C° 0.1 mm 5 mps 730 mmHg 82%
05:00 -5°C° 0.1 mm 5 mps 730 mmHg 81%
06:00 -5°C° 0.1 mm 5 mps 730 mmHg 81%
07:00 -6°C° 0.1 mm 5 mps 731 mmHg 80%
08:00 -5°C° 0.1 mm 5 mps 731 mmHg 77%
09:00 -5°C° 0.1 mm 5 mps 731 mmHg 74%
10:00 -5°C° 0.1 mm 6 mps 731 mmHg 71%
11:00 -4°C° 0.1 mm 6 mps 732 mmHg 71%
12:00 -4°C° 0.1 mm 6 mps 732 mmHg 70%
13:00 -4°C° 0.1 mm 6 mps 732 mmHg 70%
14:00 -4°C° 0 mm 6 mps 732 mmHg 72%
15:00 -4°C° 0 mm 5 mps 733 mmHg 74%
16:00 -4°C° 0 mm 5 mps 733 mmHg 75%
17:00 -4°C° 0.1 mm 5 mps 733 mmHg 79%
18:00 -5°C° 0.1 mm 6 mps 733 mmHg 82%
19:00 -5°C° 0.1 mm 6 mps 734 mmHg 86%
20:00 -5°C° 0.2 mm 5 mps 734 mmHg 84%
21:00 -5°C° 0.2 mm 5 mps 734 mmHg 81%
22:00 -5°C° 0.2 mm 4 mps 734 mmHg 79%
23:00 -5°C° 0 mm 4 mps 734 mmHg 81%

Mañana, 23 Octubre, Viernes

Tiempo Temperatura Precipitaciones Viento Presión Humedad
00:00 -5°C° 0 mm 4 mps 735 mmHg 83%
01:00 -6°C° 0 mm 3 mps 735 mmHg 85%
02:00 -6°C° 0 mm 3 mps 735 mmHg 87%
03:00 -6°C° 0 mm 3 mps 735 mmHg 88%
04:00 -6°C° 0 mm 3 mps 736 mmHg 90%
05:00 -6°C° 0 mm 3 mps 736 mmHg 90%
06:00 -5°C° 0 mm 2 mps 736 mmHg 91%
07:00 -6°C° 0 mm 2 mps 736 mmHg 92%
08:00 -5°C° 0 mm 2 mps 736 mmHg 86%
09:00 -4°C° 0 mm 2 mps 737 mmHg 79%
10:00 -3°C° 0 mm 2 mps 737 mmHg 73%
11:00 -4°C° 0 mm 3 mps 737 mmHg 71%
12:00 -2°C° 0 mm 3 mps 737 mmHg 70%
13:00 -2°C° 0 mm 3 mps 737 mmHg 68%
14:00 -2°C° 0 mm 3 mps 737 mmHg 69%
15:00 -2°C° 0 mm 3 mps 737 mmHg 70%
16:00 -2°C° 0 mm 3 mps 737 mmHg 71%
17:00 -2°C° 0 mm 2 mps 736 mmHg 76%
18:00 -3°C° 0 mm 2 mps 736 mmHg 80%
19:00 -3°C° 0 mm 2 mps 736 mmHg 84%
20:00 -3°C° 0 mm 2 mps 736 mmHg 83%
21:00 -3°C° 0 mm 2 mps 736 mmHg 82%
22:00 -3°C° 0 mm 2 mps 735 mmHg 80%
23:00 -3°C° 0 mm 2 mps 735 mmHg 81%

Pasado mañana, 24 Octubre, Sábado

Tiempo Temperatura Precipitaciones Viento Presión Humedad
00:00 -4°C° 0 mm 3 mps 734 mmHg 81%
01:00 -4°C° 0 mm 3 mps 733 mmHg 82%
02:00 -4°C° 0.1 mm 3 mps 733 mmHg 83%
03:00 -4°C° 0.1 mm 3 mps 732 mmHg 85%
04:00 -2°C° 0.1 mm 3 mps 731 mmHg 87%
05:00 -2°C° 0.5 mm 3 mps 731 mmHg 89%
06:00 -2°C° 0.5 mm 3 mps 730 mmHg 92%
07:00 -1°C° 0.5 mm 3 mps 729 mmHg 94%
08:00 -1°C° 0.2 mm 3 mps 728 mmHg 93%
09:00 0°C° 0.2 mm 3 mps 728 mmHg 92%
10:00 0°C° 0.2 mm 3 mps 727 mmHg 90%
11:00 +2°C° 0.2 mm 2 mps 727 mmHg 91%
12:00 +2°C° 0.2 mm 2 mps 727 mmHg 92%
13:00 +3°C° 0.2 mm 2 mps 726 mmHg 93%
14:00 +3°C° 0.6 mm 2 mps 726 mmHg 95%
15:00 +3°C° 0.6 mm 2 mps 725 mmHg 96%
16:00 +4°C° 0.6 mm 1 mps 725 mmHg 97%
17:00 +4°C° 0.5 mm 1 mps 725 mmHg 97%
18:00 +4°C° 0.5 mm 1 mps 725 mmHg 97%
19:00 +4°C° 0.5 mm 1 mps 725 mmHg 97%
20:00 +3°C° 0.1 mm 2 mps 726 mmHg 98%
21:00 +3°C° 0.1 mm 2 mps 726 mmHg 98%
22:00 +3°C° 0.1 mm 2 mps 727 mmHg 98%
23:00 +3°C° 0.1 mm 2 mps 727 mmHg 98%

, 25 Octubre, Domingo

Tiempo Temperatura Precipitaciones Viento Presión Humedad
00:00 +3°C° 0.1 mm 2 mps 728 mmHg 98%
01:00 +3°C° 0.1 mm 2 mps 728 mmHg 98%
02:00 +3°C° 0.1 mm 2 mps 729 mmHg 98%
03:00 +3°C° 0.1 mm 2 mps 729 mmHg 98%
04:00 +3°C° 0.1 mm 2 mps 730 mmHg 98%
05:00 +3°C° 0 mm 2 mps 730 mmHg 98%
06:00 +3°C° 0 mm 2 mps 730 mmHg 98%
07:00 +3°C° 0 mm 2 mps 730 mmHg 98%
08:00 +4°C° 0.1 mm 2 mps 731 mmHg 98%
09:00 +3°C° 0.1 mm 3 mps 731 mmHg 97%
10:00 +3°C° 0.1 mm 3 mps 731 mmHg 97%
11:00 +4°C° 0 mm 3 mps 731 mmHg 95%
12:00 +5°C° 0 mm 3 mps 731 mmHg 92%
13:00 +7°C° 0 mm 3 mps 731 mmHg 90%
14:00 +5°C° 0.1 mm 3 mps 731 mmHg 92%
15:00 +5°C° 0.1 mm 3 mps 731 mmHg 93%
16:00 +6°C° 0.1 mm 2 mps 731 mmHg 95%
17:00 +5°C° 0 mm 2 mps 731 mmHg 96%
18:00 +5°C° 0 mm 2 mps 731 mmHg 96%
19:00 +6°C° 0 mm 1 mps 731 mmHg 97%
20:00 +6°C° 0 mm 1 mps 731 mmHg 96%
21:00 +6°C° 0 mm 1 mps 731 mmHg 96%
22:00 +6°C° 0 mm 1 mps 730 mmHg 96%
23:00 +5°C° 0 mm 1 mps 730 mmHg 96%

25 Octubre, Domingo

Tiempo Temperatura Precipitaciones Viento Presión Humedad
00:00 +3°C° 0.1 mm 2 mps 728 mmHg 98%
01:00 +3°C° 0.1 mm 2 mps 728 mmHg 98%
02:00 +3°C° 0.1 mm 2 mps 729 mmHg 98%
03:00 +3°C° 0.1 mm 2 mps 729 mmHg 98%
04:00 +3°C° 0.1 mm 2 mps 730 mmHg 98%
05:00 +3°C° 0 mm 2 mps 730 mmHg 98%
06:00 +3°C° 0 mm 2 mps 730 mmHg 98%
07:00 +3°C° 0 mm 2 mps 730 mmHg 98%
08:00 +4°C° 0.1 mm 2 mps 731 mmHg 98%
09:00 +3°C° 0.1 mm 3 mps 731 mmHg 97%
10:00 +3°C° 0.1 mm 3 mps 731 mmHg 97%
11:00 +4°C° 0 mm 3 mps 731 mmHg 95%
12:00 +5°C° 0 mm 3 mps 731 mmHg 92%
13:00 +7°C° 0 mm 3 mps 731 mmHg 90%
14:00 +5°C° 0.1 mm 3 mps 731 mmHg 92%
15:00 +5°C° 0.1 mm 3 mps 731 mmHg 93%
16:00 +6°C° 0.1 mm 2 mps 731 mmHg 95%
17:00 +5°C° 0 mm 2 mps 731 mmHg 96%
18:00 +5°C° 0 mm 2 mps 731 mmHg 96%
19:00 +6°C° 0 mm 1 mps 731 mmHg 97%
20:00 +6°C° 0 mm 1 mps 731 mmHg 96%
21:00 +6°C° 0 mm 1 mps 731 mmHg 96%
22:00 +6°C° 0 mm 1 mps 730 mmHg 96%
23:00 +5°C° 0 mm 1 mps 730 mmHg 96%

26 Octubre, Lunes

Tiempo Temperatura Precipitaciones Viento Presión Humedad
00:00 +5°C° 0 mm 1 mps 730 mmHg 95%
01:00 +5°C° 0 mm 1 mps 729 mmHg 95%
02:00 +5°C° 0.8 mm 1 mps 729 mmHg 95%
03:00 +5°C° 0.8 mm 1 mps 728 mmHg 96%
04:00 +5°C° 0.8 mm 1 mps 727 mmHg 96%
05:00 +4°C° 0.5 mm 2 mps 727 mmHg 96%
06:00 +4°C° 0.5 mm 2 mps 726 mmHg 96%
07:00 +4°C° 0.5 mm 2 mps 726 mmHg 96%
08:00 +3°C° 0.5 mm 3 mps 725 mmHg 96%
09:00 +4°C° 0.5 mm 3 mps 725 mmHg 96%
10:00 +4°C° 0.5 mm 3 mps 724 mmHg 96%
11:00 +3°C° 1 mm 4 mps 724 mmHg 96%
12:00 +2°C° 1 mm 5 mps 724 mmHg 96%
13:00 +2°C° 1 mm 6 mps 723 mmHg 96%
14:00 +2°C° 1 mm 6 mps 723 mmHg 96%
15:00 +1°C° 1 mm 6 mps 724 mmHg 96%
16:00 0°C° 1 mm 7 mps 724 mmHg 96%
17:00 -1°C° 0.7 mm 7 mps 724 mmHg 95%
18:00 -2°C° 0.7 mm 8 mps 725 mmHg 94%
19:00 -4°C° 0.7 mm 8 mps 725 mmHg 94%
20:00 -5°C° 0.4 mm 8 mps 725 mmHg 93%
21:00 -6°C° 0.4 mm 8 mps 725 mmHg 92%
22:00 -6°C° 0.4 mm 7 mps 726 mmHg 91%
23:00 -6°C° 0.8 mm 7 mps 726 mmHg 92%

27 Octubre, Martes

Tiempo Temperatura Precipitaciones Viento Presión Humedad
00:00 -6°C° 0.8 mm 7 mps 726 mmHg 93%
01:00 -6°C° 0.8 mm 7 mps 726 mmHg 94%
02:00 -6°C° 1 mm 7 mps 727 mmHg 94%
03:00 -6°C° 1 mm 7 mps 727 mmHg 94%
04:00 -6°C° 1 mm 7 mps 727 mmHg 94%
05:00 -6°C° 0.5 mm 7 mps 728 mmHg 94%
06:00 -6°C° 0.5 mm 7 mps 729 mmHg 94%
07:00 -6°C° 0.5 mm 7 mps 729 mmHg 93%
08:00 -5°C° 0.1 mm 8 mps 730 mmHg 91%
09:00 -5°C° 0.1 mm 8 mps 731 mmHg 89%
10:00 -4°C° 0.1 mm 9 mps 731 mmHg 87%
11:00 -4°C° 0.1 mm 9 mps 732 mmHg 88%
12:00 -4°C° 0.1 mm 8 mps 733 mmHg 89%
13:00 -4°C° 0.1 mm 8 mps 734 mmHg 90%
14:00 -3°C° 0 mm 7 mps 735 mmHg 89%
15:00 -3°C° 0 mm 7 mps 735 mmHg 88%
16:00 -4°C° 0 mm 7 mps 736 mmHg 87%
17:00 -4°C° 0 mm 6 mps 737 mmHg 88%
18:00 -5°C° 0 mm 5 mps 737 mmHg 89%
19:00 -5°C° 0 mm 4 mps 738 mmHg 90%
20:00 -5°C° 0 mm 4 mps 738 mmHg 91%
21:00 -5°C° 0 mm 4 mps 739 mmHg 91%
22:00 -5°C° 0 mm 4 mps 739 mmHg 91%
23:00 -7°C° 0 mm 4 mps 739 mmHg 92%
Mostrar más

Necesitamos Su Consentimiento

Meteoprog y nuestros Proveedores de Servicios pueden almacenar y acceder a sus datos personales como cookies, identificadores de dispositivo u otras tecnologías similares de su dispositivo y procesar dichos datos para personalizar contenido y anuncios, además de ofrecer funciones de redes sociales y analizar el tráfico.

  • Almacenar y/o acceder a información en su dispositivo

    Se puede almacenar o acceder a cookies, identificadores de dispositivo u otra información de su dispositivo para los fines anteriormente indicados.

  • Anuncios y contenido personalizados, medición de anuncios y contenido, percepciones del público, y desarrollo de productos

    Los anuncios y el contenido pueden personalizarse en base a su perfil. Se pueden añadir más datos para personalizar mejor los anuncios y contenidos. Se puede medir el rendimiento de los anuncios y contenidos. Se puede obtener la percepción sobre el público que ha visto los anuncios y contenidos. Dichos datos pueden usarse para desarrollar o mejorar la experiencia del usuario, sistemas y software.

Al hacer clic en ‘Estoy De Acuerdo’ usted permitirá el uso de las cookies, identificadores de dispositivo, balizas web u otras tecnologías similares indicadas. Su configuración puede cambiarse desde el navegador de su dispositivo.

Para ciertos fines, los intereses legítimos pueden ser considerados por encima del consentimiento. Puede leer más sobre ello en nuestra Política de Privacidad y Cookies.